Weather in Khvorostyanka

Russia / Samara Oblast     52°36′55″N   48°57′53″E
temp.,
°C
wind,
m/s
gust,
m/s
humid.,
%
clouds,
%
prec.,
mm/h
press.,
hPa
HPBL,
m
3 march, wed
wed301:000w4798100 0.4 1003330
04:00−2nw2395100 0.6 100463
07:00−2nw3698100 0.7 1003213
10:00−4nw499493 0.8 1005278
13:00−2nw589076 0.0 1005631
16:00−2nw588586 0.1 1007885
19:00−4nw4991100 0.1 1008402
22:00−9wnw4793100 0.2 1010100
4 march, thu
thu401:00−10w459163 0.0 101076
04:00−12wsw459332 0.0 101182
07:00−10sw610945 0.0 1009200
10:00−7sw7139449 0.0 1008465
13:00−2sw91491100 0.1 1006883
16:000wsw101791100 0.3 10041090
19:00+1wsw91689100 0.0 10031010
22:000wsw81488100 0.1 1005752
5 march, fri
fri501:000sw71489100 0.0 1004596
04:00−2sw7148997 0.0 1003403
07:00−1sw91597100 1.0 1002648
10:00+1sw714100100 1.9 1001615
13:00+2wsw815100100 0.4 1001617
16:00+1w612100100 0.6 1004542
19:00−5nnw349384 0.1 100751
22:00−9n339354 0.1 101123
6 march, sat
sat601:00−11nne229245 0.0 101321
04:00−12ene119171 0.0 101521
07:00−11se2288100 0.0 101421
10:00−8se2289100 0.0 1013109
13:00−6ne1188100 0.1 1011213
16:00−5nnw2492100 0.1 1010299
19:00−8nw349286 0.0 101166
22:00−11nw459262 0.0 101274
7 march, sun
sun701:00−14nw34930 0.0 101334
04:00−15wnw339630 0.0 101435
07:00−17wnw23948 0.0 101520
10:00−15w35924 0.0 1016133
13:00−12ssw45890 0.0 1015252
16:00−10ssw510938 0.0 1013435
19:00−9ssw71392100 0.1 1010476
22:00−7ssw81685100 0.1 1008708